📊 Raw Sensor Data
Showing records 49176 to 49200 of 85,114 total
| ID | Distance (ft) | Battery V | Battery A | Int Temp (°F) | Int Humid (%) | Ext Temp (°F) | Solar V | RSSI | SNR | Time Stamp |
|---|---|---|---|---|---|---|---|---|---|---|
| 35951 | -- | 3.98 | -5 | 53 | 41 | 55 | 0.00 | -82 | 8 | 03/25/2025 01:15 AM |
| 35950 | -- | 4.03 | -5 | 54 | 41 | 56 | 0.00 | -81 | 7 | 03/25/2025 01:00 AM |
| 35949 | -- | 4.03 | -5 | 54 | 41 | 55 | 0.00 | -82 | 8 | 03/25/2025 12:45 AM |
| 35948 | -- | 3.98 | -35 | 55 | 41 | 56 | 0.00 | -80 | 7 | 03/25/2025 12:30 AM |
| 35947 | -- | 3.98 | -5 | 56 | 41 | 56 | 0.00 | -81 | 8 | 03/25/2025 12:15 AM |
| 35946 | -- | 3.98 | -5 | 57 | 40 | 59 | 0.00 | -81 | 7 | 03/25/2025 12:00 AM |
| 35945 | -- | 3.98 | -5 | 57 | 40 | 60 | 0.00 | -81 | 8 | 03/24/2025 11:45 PM |
| 35944 | -- | 3.98 | -5 | 57 | 41 | 60 | 0.00 | -80 | 7 | 03/24/2025 11:30 PM |
| 35943 | -- | 3.99 | -5 | 57 | 41 | 60 | 0.00 | -80 | 8 | 03/24/2025 11:15 PM |
| 35942 | -- | 3.99 | -5 | 57 | 41 | 60 | 0.00 | -82 | 7 | 03/24/2025 11:00 PM |
| 35941 | -- | 3.99 | -5 | 58 | 42 | 59 | 0.00 | -82 | 7 | 03/24/2025 10:46 PM |
| 35940 | -- | 3.99 | -5 | 58 | 42 | 60 | 0.00 | -81 | 8 | 03/24/2025 10:30 PM |
| 35939 | -- | 3.99 | -5 | 58 | 42 | 60 | 0.10 | -81 | 7 | 03/24/2025 10:15 PM |
| 35938 | -- | 3.99 | -5 | 60 | 42 | 62 | 0.10 | -80 | 7 | 03/24/2025 10:00 PM |
| 35937 | -- | 3.99 | -5 | 60 | 42 | 62 | 0.00 | -81 | 7 | 03/24/2025 09:45 PM |
| 35936 | -- | 3.99 | -5 | 60 | 43 | 62 | 0.00 | -81 | 7 | 03/24/2025 09:30 PM |
| 35935 | -- | 3.99 | -5 | 60 | 44 | 60 | 0.00 | -81 | 8 | 03/24/2025 09:15 PM |
| 35934 | -- | 3.99 | -5 | 61 | 44 | 61 | 0.00 | -81 | 8 | 03/24/2025 09:00 PM |
| 35933 | -- | 4.00 | -5 | 63 | 45 | 62 | 0.00 | -80 | 8 | 03/24/2025 08:45 PM |
| 35932 | -- | 4.05 | -5 | 64 | 46 | 63 | 0.00 | -80 | 7 | 03/24/2025 08:30 PM |
| 35931 | -- | 4.00 | -5 | 66 | 46 | 68 | 0.10 | -80 | 8 | 03/24/2025 08:15 PM |
| 35930 | -- | 4.00 | -5 | 68 | 47 | 69 | 0.00 | -80 | 7 | 03/24/2025 08:00 PM |
| 35929 | -- | 4.05 | -5 | 70 | 48 | 71 | 0.00 | -80 | 8 | 03/24/2025 07:45 PM |
| 35928 | -- | 4.00 | -5 | 73 | 49 | 71 | 1.20 | -80 | 7 | 03/24/2025 07:30 PM |
| 35927 | -- | 3.99 | -39 | 78 | 48 | 73 | 4.10 | -81 | 8 | 03/24/2025 07:15 PM |